contact:dominique.lefevre@mio.osupytheas.fr, maurice.libes@osupytheas.fr, didier.mallarino@osupytheas.fr
Project:EMSO http://www.emso-fr.org/EMSO-France
Depth: 2436.0 m
Title:EMSO Ligure Ouest : Data MII capteur MICROCAT
DateTime_Computer,Latitude,Longitude,Temperature,Conductivity,Pressure,DateTime_Instrument
DateTime_Computer,Latitude,Longitude,degC,S m-1,dbar,DateTime_Instrument
2017-11-27T00:02:09Z,42.805,6.029,13.2958,4.60000,2472.069,2017-11-27T02:03:37Z
2017-11-27T00:05:12Z,42.805,6.029,13.2961,4.60015,2472.047,2017-11-27T02:06:40Z
2017-11-27T00:08:15Z,42.805,6.029,13.2950,4.59997,2472.047,2017-11-27T02:09:43Z
2017-11-27T00:11:18Z,42.805,6.029,13.2962,4.59998,2472.055,2017-11-27T02:12:46Z
2017-11-27T00:14:21Z,42.805,6.029,13.2957,4.59991,2472.055,2017-11-27T02:15:49Z
2017-11-27T00:17:24Z,42.805,6.029,13.2951,4.60000,2472.024,2017-11-27T02:18:52Z
2017-11-27T00:20:27Z,42.805,6.029,13.2951,4.59996,2472.047,2017-11-27T02:21:55Z
2017-11-27T00:23:29Z,42.805,6.029,13.2958,4.60000,2472.032,2017-11-27T02:24:58Z
2017-11-27T00:26:32Z,42.805,6.029,13.2953,4.59990,2472.069,2017-11-27T02:28:01Z
2017-11-27T00:29:35Z,42.805,6.029,13.2953,4.60003,2472.047,2017-11-27T02:31:04Z
2017-11-27T00:32:38Z,42.805,6.029,13.2957,4.60006,2472.047,2017-11-27T02:34:06Z
2017-11-27T00:35:41Z,42.805,6.029,13.2959,4.60031,2472.024,2017-11-27T02:37:09Z
2017-11-27T00:38:44Z,42.805,6.029,13.2951,4.60004,2472.069,2017-11-27T02:40:12Z
2017-11-27T00:41:47Z,42.805,6.029,13.2954,4.60001,2472.024,2017-11-27T02:43:15Z
2017-11-27T00:44:50Z,42.805,6.029,13.2949,4.59983,2472.024,2017-11-27T02:46:18Z
2017-11-27T00:47:53Z,42.805,6.029,13.2961,4.59997,2472.047,2017-11-27T02:49:21Z
2017-11-27T00:50:55Z,42.805,6.029,13.2954,4.60006,2472.047,2017-11-27T02:52:24Z
2017-11-27T00:53:58Z,42.805,6.029,13.2952,4.59992,2472.069,2017-11-27T02:55:27Z
2017-11-27T00:57:01Z,42.805,6.029,13.2949,4.59984,2472.055,2017-11-27T02:58:30Z
2017-11-27T01:00:04Z,42.805,6.029,13.2948,4.59978,2472.032,2017-11-27T03:01:32Z
2017-11-27T01:03:07Z,42.805,6.029,13.2950,4.59975,2472.024,2017-11-27T03:04:35Z
2017-11-27T01:06:10Z,42.805,6.029,13.2950,4.59982,2472.032,2017-11-27T03:07:38Z
2017-11-27T01:09:13Z,42.805,6.029,13.2943,4.59985,2472.047,2017-11-27T03:10:41Z
2017-11-27T01:12:16Z,42.805,6.029,13.2950,4.59981,2472.047,2017-11-27T03:13:44Z
2017-11-27T01:15:19Z,42.805,6.029,13.2944,4.59974,2472.047,2017-11-27T03:16:47Z
2017-11-27T01:18:21Z,42.805,6.029,13.2954,4.59984,2472.01,2017-11-27T03:19:50Z
2017-11-27T01:21:24Z,42.805,6.029,13.2951,4.59988,2472.01,2017-11-27T03:22:53Z
2017-11-27T01:24:27Z,42.805,6.029,13.2949,4.59990,2472.047,2017-11-27T03:25:56Z
2017-11-27T01:27:30Z,42.805,6.029,13.2949,4.60001,2472.032,2017-11-27T03:28:58Z
2017-11-27T01:30:33Z,42.805,6.029,13.2947,4.59975,2472.047,2017-11-27T03:32:01Z
2017-11-27T01:33:36Z,42.805,6.029,13.2951,4.59994,2472.032,2017-11-27T03:35:04Z
2017-11-27T01:36:39Z,42.805,6.029,13.2950,4.59980,2471.987,2017-11-27T03:38:07Z
2017-11-27T01:39:42Z,42.805,6.029,13.2953,4.59987,2472.032,2017-11-27T03:41:10Z
2017-11-27T01:42:45Z,42.805,6.029,13.2948,4.59978,2472.01,2017-11-27T03:44:13Z
2017-11-27T01:45:47Z,42.805,6.029,13.2952,4.59984,2472.032,2017-11-27T03:47:16Z
2017-11-27T01:48:50Z,42.805,6.029,13.2948,4.59981,2472.024,2017-11-27T03:50:19Z
2017-11-27T01:51:53Z,42.805,6.029,13.2947,4.59982,2472.024,2017-11-27T03:53:22Z
2017-11-27T01:54:56Z,42.805,6.029,13.2949,4.59988,2472.047,2017-11-27T03:56:25Z
2017-11-27T01:57:59Z,42.805,6.029,13.2951,4.59979,2472.069,2017-11-27T03:59:27Z
2017-11-27T02:01:02Z,42.805,6.029,13.2952,4.59990,2472.032,2017-11-27T04:02:30Z
2017-11-27T02:04:05Z,42.805,6.029,13.2951,4.59987,2472.047,2017-11-27T04:05:33Z
2017-11-27T02:07:08Z,42.805,6.029,13.2954,4.59978,2472.047,2017-11-27T04:08:36Z
2017-11-27T02:10:11Z,42.805,6.029,13.2948,4.59984,2472.024,2017-11-27T04:11:39Z
2017-11-27T02:13:13Z,42.805,6.029,13.2946,4.59985,2472.032,2017-11-27T04:14:42Z
2017-11-27T02:16:16Z,42.805,6.029,13.2943,4.59983,2472.032,2017-11-27T04:17:45Z
2017-11-27T02:19:19Z,42.805,6.029,13.2946,4.59985,2472.032,2017-11-27T04:20:48Z
2017-11-27T02:22:22Z,42.805,6.029,13.2948,4.59985,2472.024,2017-11-27T04:23:51Z
2017-11-27T02:25:25Z,42.805,6.029,13.2950,4.59978,2472.01,2017-11-27T04:26:53Z
2017-11-27T02:28:28Z,42.805,6.029,13.2950,4.59987,2472.024,2017-11-27T04:29:56Z
2017-11-27T02:31:31Z,42.805,6.029,13.2958,4.59999,2472.01,2017-11-27T04:32:59Z
2017-11-27T02:34:34Z,42.805,6.029,13.2947,4.60011,2472.024,2017-11-27T04:36:02Z
2017-11-27T02:37:37Z,42.805,6.029,13.2954,4.59992,2472.01,2017-11-27T04:39:05Z
2017-11-27T02:40:40Z,42.805,6.029,13.2950,4.59990,2472.024,2017-11-27T04:42:08Z
2017-11-27T02:43:42Z,42.805,6.029,13.2942,4.59990,2472.01,2017-11-27T04:45:11Z
2017-11-27T02:46:45Z,42.805,6.029,13.2948,4.59983,2472.047,2017-11-27T04:48:14Z
2017-11-27T02:49:48Z,42.805,6.029,13.2954,4.59988,2472.047,2017-11-27T04:51:17Z
2017-11-27T02:52:51Z,42.805,6.029,13.2946,4.59993,2472.024,2017-11-27T04:54:19Z
2017-11-27T02:55:54Z,42.805,6.029,13.2955,4.59998,2472.002,2017-11-27T04:57:22Z
2017-11-27T02:58:57Z,42.805,6.029,13.2950,4.60008,2472.002,2017-11-27T05:00:25Z
2017-11-27T03:02:00Z,42.805,6.029,13.2957,4.60001,2472.01,2017-11-27T05:03:28Z
2017-11-27T03:05:03Z,42.805,6.029,13.2955,4.60009,2472.047,2017-11-27T05:06:31Z
2017-11-27T03:08:06Z,42.805,6.029,13.2958,4.59995,2472.032,2017-11-27T05:09:34Z
2017-11-27T03:11:08Z,42.805,6.029,13.2947,4.60019,2472.002,2017-11-27T05:12:37Z
2017-11-27T03:14:11Z,42.805,6.029,13.2961,4.60009,2472.024,2017-11-27T05:15:40Z
2017-11-27T03:17:14Z,42.805,6.029,13.2951,4.60021,2472.024,2017-11-27T05:18:43Z
2017-11-27T03:20:17Z,42.805,6.029,13.2945,4.60002,2472.024,2017-11-27T05:21:45Z
2017-11-27T03:23:20Z,42.805,6.029,13.2949,4.59997,2472.002,2017-11-27T05:24:48Z
2017-11-27T03:26:23Z,42.805,6.029,13.2949,4.59985,2472.032,2017-11-27T05:27:51Z
2017-11-27T03:29:26Z,42.805,6.029,13.2951,4.59984,2472.024,2017-11-27T05:30:54Z
2017-11-27T03:32:29Z,42.805,6.029,13.2948,4.59987,2471.987,2017-11-27T05:33:57Z
2017-11-27T03:35:32Z,42.805,6.029,13.2956,4.59995,2472.002,2017-11-27T05:37:00Z
2017-11-27T03:38:34Z,42.805,6.029,13.2952,4.60001,2472.01,2017-11-27T05:40:03Z
2017-11-27T03:41:37Z,42.805,6.029,13.2953,4.60003,2472.047,2017-11-27T05:43:06Z
2017-11-27T03:44:40Z,42.805,6.029,13.2960,4.60006,2472.002,2017-11-27T05:46:09Z
2017-11-27T03:47:43Z,42.805,6.029,13.2953,4.60009,2472.024,2017-11-27T05:49:11Z
2017-11-27T03:50:46Z,42.805,6.029,13.2959,4.59994,2472.024,2017-11-27T05:52:14Z
2017-11-27T03:53:49Z,42.805,6.029,13.2947,4.60006,2472.01,2017-11-27T05:55:17Z
2017-11-27T03:56:52Z,42.805,6.029,13.2962,4.60031,2472.002,2017-11-27T05:58:20Z
2017-11-27T03:59:55Z,42.805,6.029,13.2972,4.60032,2472.024,2017-11-27T06:01:23Z
2017-11-27T04:02:58Z,42.805,6.029,13.2967,4.60052,2471.987,2017-11-27T06:04:26Z
2017-11-27T04:06:00Z,42.805,6.029,13.2952,4.60006,2471.987,2017-11-27T06:07:29Z
2017-11-27T04:09:03Z,42.805,6.029,13.2961,4.59995,2472.002,2017-11-27T06:10:32Z
2017-11-27T04:12:06Z,42.805,6.029,13.2958,4.60017,2472.024,2017-11-27T06:13:35Z
2017-11-27T04:15:09Z,42.805,6.029,13.2970,4.60018,2472.002,2017-11-27T06:16:38Z
2017-11-27T04:18:12Z,42.805,6.029,13.2980,4.60117,2472.024,2017-11-27T06:19:40Z
2017-11-27T04:21:15Z,42.805,6.029,13.2984,4.60037,2472.024,2017-11-27T06:22:43Z
2017-11-27T04:24:18Z,42.805,6.029,13.2973,4.60015,2472.024,2017-11-27T06:25:46Z
2017-11-27T04:27:21Z,42.805,6.029,13.2986,4.60023,2472.002,2017-11-27T06:28:49Z
2017-11-27T04:30:24Z,42.805,6.029,13.2973,4.60038,2471.979,2017-11-27T06:31:52Z
2017-11-27T04:33:27Z,42.805,6.029,13.2957,4.60008,2472.002,2017-11-27T06:34:55Z
2017-11-27T04:36:29Z,42.805,6.029,13.2953,4.60021,2472.01,2017-11-27T06:37:58Z
2017-11-27T04:39:32Z,42.805,6.029,13.2956,4.60011,2471.987,2017-11-27T06:41:01Z
2017-11-27T04:42:35Z,42.805,6.029,13.2949,4.60009,2471.987,2017-11-27T06:44:04Z
2017-11-27T04:45:38Z,42.805,6.029,13.2957,4.60032,2472.024,2017-11-27T06:47:06Z
2017-11-27T04:48:41Z,42.805,6.029,13.2972,4.60066,2471.979,2017-11-27T06:50:09Z
2017-11-27T04:51:44Z,42.805,6.029,13.2973,4.60024,2471.987,2017-11-27T06:53:12Z
2017-11-27T04:54:47Z,42.805,6.029,13.2989,4.60006,2471.979,2017-11-27T06:56:15Z
2017-11-27T04:57:50Z,42.805,6.029,13.2995,4.60040,2472.002,2017-11-27T06:59:18Z
2017-11-27T05:00:53Z,42.805,6.029,13.2960,4.60048,2472.002,2017-11-27T07:02:21Z
2017-11-27T05:03:55Z,42.805,6.029,13.2975,4.60084,2472.024,2017-11-27T07:05:24Z
2017-11-27T05:06:58Z,42.805,6.029,13.2959,4.60039,2472.002,2017-11-27T07:08:27Z
2017-11-27T05:10:01Z,42.805,6.029,13.2981,4.60054,2472.002,2017-11-27T07:11:30Z
2017-11-27T05:13:04Z,42.805,6.029,13.2966,4.60044,2472.024,2017-11-27T07:14:32Z
2017-11-27T05:16:07Z,42.805,6.029,13.2983,4.60054,2472.024,2017-11-27T07:17:35Z
2017-11-27T05:19:10Z,42.805,6.029,13.2982,4.60007,2471.994,2017-11-27T07:20:38Z
2017-11-27T05:22:13Z,42.805,6.029,13.2963,4.60053,2472.002,2017-11-27T07:23:41Z
2017-11-27T05:25:16Z,42.805,6.029,13.2980,4.60040,2471.957,2017-11-27T07:26:44Z
2017-11-27T05:28:19Z,42.805,6.029,13.2982,4.60052,2472.002,2017-11-27T07:29:47Z
2017-11-27T05:31:21Z,42.805,6.029,13.3000,4.60058,2472.024,2017-11-27T07:32:50Z
2017-11-27T05:34:24Z,42.805,6.029,13.2991,4.60015,2471.987,2017-11-27T07:35:53Z
2017-11-27T05:37:27Z,42.805,6.029,13.2985,4.60038,2472.002,2017-11-27T07:38:56Z
2017-11-27T05:40:30Z,42.805,6.029,13.2995,4.60054,2472.002,2017-11-27T07:41:58Z
2017-11-27T05:43:33Z,42.805,6.029,13.2986,4.60073,2471.987,2017-11-27T07:45:01Z
2017-11-27T05:46:36Z,42.805,6.029,13.2978,4.60054,2471.979,2017-11-27T07:48:04Z
2017-11-27T05:49:39Z,42.805,6.029,13.2979,4.60035,2471.979,2017-11-27T07:51:07Z
2017-11-27T05:52:42Z,42.805,6.029,13.2980,4.60003,2471.979,2017-11-27T07:54:10Z
2017-11-27T05:55:45Z,42.805,6.029,13.2978,4.60027,2471.964,2017-11-27T07:57:13Z
2017-11-27T05:58:47Z,42.805,6.029,13.2977,4.60027,2471.979,2017-11-27T08:00:16Z
2017-11-27T06:01:50Z,42.805,6.029,13.3001,4.60044,2471.987,2017-11-27T08:03:19Z
2017-11-27T06:04:53Z,42.805,6.029,13.2973,4.60040,2471.964,2017-11-27T08:06:22Z
2017-11-27T06:07:56Z,42.805,6.029,13.2988,4.60044,2472.002,2017-11-27T08:09:24Z
2017-11-27T06:10:59Z,42.805,6.029,13.2993,4.60046,2472.002,2017-11-27T08:12:27Z
2017-11-27T06:14:02Z,42.805,6.029,13.3003,4.60004,2472.002,2017-11-27T08:15:30Z
2017-11-27T06:17:05Z,42.805,6.029,13.2984,4.60100,2471.979,2017-11-27T08:18:33Z
2017-11-27T06:20:08Z,42.805,6.029,13.2991,4.60033,2472.024,2017-11-27T08:21:36Z
2017-11-27T06:23:11Z,42.805,6.029,13.3014,4.60025,2471.964,2017-11-27T08:24:39Z
2017-11-27T06:26:14Z,42.805,6.029,13.3026,4.60021,2471.979,2017-11-27T08:27:42Z
2017-11-27T06:29:16Z,42.805,6.029,13.2964,4.60038,2472.002,2017-11-27T08:30:45Z
2017-11-27T06:32:19Z,42.805,6.029,13.2976,4.60020,2471.987,2017-11-27T08:33:48Z
2017-11-27T06:35:22Z,42.805,6.029,13.2956,4.60001,2472.002,2017-11-27T08:36:51Z
2017-11-27T06:38:25Z,42.805,6.029,13.2966,4.59997,2471.979,2017-11-27T08:39:53Z
2017-11-27T06:41:28Z,42.805,6.029,13.2984,4.59994,2472.002,2017-11-27T08:42:56Z
2017-11-27T06:44:31Z,42.805,6.029,13.2979,4.59986,2471.979,2017-11-27T08:45:59Z
2017-11-27T06:47:34Z,42.805,6.029,13.2992,4.60013,2471.979,2017-11-27T08:49:02Z
2017-11-27T06:50:37Z,42.805,6.029,13.2993,4.60027,2471.979,2017-11-27T08:52:05Z
2017-11-27T06:53:40Z,42.805,6.029,13.2998,4.60001,2471.994,2017-11-27T08:55:08Z
2017-11-27T06:56:42Z,42.805,6.029,13.2988,4.60030,2471.979,2017-11-27T08:58:11Z
2017-11-27T06:59:45Z,42.805,6.029,13.2981,4.60002,2471.987,2017-11-27T09:01:14Z
2017-11-27T07:02:48Z,42.805,6.029,13.2966,4.60001,2471.979,2017-11-27T09:04:17Z
2017-11-27T07:05:51Z,42.805,6.029,13.2971,4.60053,2472.024,2017-11-27T09:07:19Z
2017-11-27T07:08:54Z,42.805,6.029,13.2992,4.59998,2472.002,2017-11-27T09:10:22Z
2017-11-27T07:11:57Z,42.805,6.029,13.3010,4.60014,2471.979,2017-11-27T09:13:25Z
2017-11-27T07:15:00Z,42.805,6.029,13.2982,4.60079,2471.987,2017-11-27T09:16:28Z
2017-11-27T07:18:03Z,42.805,6.029,13.3000,4.60029,2471.964,2017-11-27T09:19:31Z
2017-11-27T07:21:06Z,42.805,6.029,13.3018,4.60034,2471.979,2017-11-27T09:22:34Z
2017-11-27T07:24:08Z,42.805,6.029,13.3015,4.60006,2471.979,2017-11-27T09:25:37Z
2017-11-27T07:27:11Z,42.805,6.029,13.2967,4.60001,2471.979,2017-11-27T09:28:40Z
2017-11-27T07:30:14Z,42.805,6.029,13.2964,4.59992,2471.987,2017-11-27T09:31:43Z
2017-11-27T07:33:17Z,42.805,6.029,13.3000,4.60029,2472.002,2017-11-27T09:34:46Z
2017-11-27T07:36:20Z,42.805,6.029,13.2978,4.60012,2472.002,2017-11-27T09:37:48Z
2017-11-27T07:39:23Z,42.805,6.029,13.2985,4.60011,2472.002,2017-11-27T09:40:51Z
2017-11-27T07:42:26Z,42.805,6.029,13.2985,4.60024,2472.002,2017-11-27T09:43:54Z
2017-11-27T07:45:29Z,42.805,6.029,13.2988,4.60003,2472.002,2017-11-27T09:46:57Z
2017-11-27T07:48:32Z,42.805,6.029,13.2979,4.60013,2471.979,2017-11-27T09:50:00Z
2017-11-27T07:51:34Z,42.805,6.029,13.2972,4.59978,2472.002,2017-11-27T09:53:03Z
2017-11-27T07:54:37Z,42.805,6.029,13.2979,4.60000,2471.987,2017-11-27T09:56:06Z
2017-11-27T07:57:40Z,42.805,6.029,13.2981,4.59975,2472.002,2017-11-27T09:59:09Z
2017-11-27T08:00:43Z,42.805,6.029,13.2957,4.59993,2472.002,2017-11-27T10:02:12Z
2017-11-27T08:03:46Z,42.805,6.029,13.2986,4.59972,2471.979,2017-11-27T10:05:14Z
2017-11-27T08:06:49Z,42.805,6.029,13.2984,4.59983,2472.002,2017-11-27T10:08:17Z
2017-11-27T08:09:52Z,42.805,6.029,13.2960,4.59975,2472.002,2017-11-27T10:11:20Z
2017-11-27T08:12:55Z,42.805,6.029,13.2965,4.59970,2472.002,2017-11-27T10:14:23Z
2017-11-27T08:15:58Z,42.805,6.029,13.2961,4.59973,2472.069,2017-11-27T10:17:26Z
2017-11-27T08:19:01Z,42.805,6.029,13.2966,4.59979,2472.024,2017-11-27T10:20:29Z
2017-11-27T08:22:03Z,42.805,6.029,13.2961,4.59987,2472.002,2017-11-27T10:23:32Z
2017-11-27T08:25:06Z,42.805,6.029,13.2965,4.59984,2472.002,2017-11-27T10:26:35Z
2017-11-27T08:28:09Z,42.805,6.029,13.2955,4.59992,2472.002,2017-11-27T10:29:38Z
2017-11-27T08:31:12Z,42.805,6.029,13.2980,4.59983,2471.987,2017-11-27T10:32:40Z
2017-11-27T08:34:15Z,42.805,6.029,13.2993,4.59992,2472.024,2017-11-27T10:35:43Z
2017-11-27T08:37:18Z,42.805,6.029,13.2978,4.59989,2472.024,2017-11-27T10:38:46Z
2017-11-27T08:40:21Z,42.805,6.029,13.2981,4.60021,2472.024,2017-11-27T10:41:49Z
2017-11-27T08:43:24Z,42.805,6.029,13.3000,4.59999,2472.024,2017-11-27T10:44:52Z
2017-11-27T08:46:27Z,42.805,6.029,13.2993,4.60019,2472.047,2017-11-27T10:47:55Z
2017-11-27T08:49:30Z,42.805,6.029,13.2981,4.60000,2472.024,2017-11-27T10:50:58Z
2017-11-27T08:52:32Z,42.805,6.029,13.3007,4.60015,2471.987,2017-11-27T10:54:01Z
2017-11-27T08:55:35Z,42.805,6.029,13.2969,4.59998,2472.024,2017-11-27T10:57:04Z
2017-11-27T08:58:38Z,42.805,6.029,13.2999,4.59986,2472.024,2017-11-27T11:00:07Z
2017-11-27T09:01:41Z,42.805,6.029,13.3015,4.60015,2472.01,2017-11-27T11:03:09Z
2017-11-27T09:04:44Z,42.805,6.029,13.2991,4.59998,2472.047,2017-11-27T11:06:12Z
2017-11-27T09:07:47Z,42.805,6.029,13.2970,4.59995,2472.024,2017-11-27T11:09:15Z
2017-11-27T09:10:50Z,42.805,6.029,13.2978,4.59984,2472.055,2017-11-27T11:12:18Z
2017-11-27T09:13:53Z,42.805,6.029,13.2974,4.59990,2472.024,2017-11-27T11:15:21Z
2017-11-27T09:16:56Z,42.805,6.029,13.2988,4.59988,2472.024,2017-11-27T11:18:24Z
2017-11-27T09:19:58Z,42.805,6.029,13.2975,4.60008,2472.055,2017-11-27T11:21:27Z
2017-11-27T09:23:01Z,42.805,6.029,13.2971,4.60032,2472.01,2017-11-27T11:24:30Z
2017-11-27T09:26:04Z,42.805,6.029,13.2988,4.60013,2472.069,2017-11-27T11:27:33Z
2017-11-27T09:29:07Z,42.805,6.029,13.2981,4.59996,2472.047,2017-11-27T11:30:36Z
2017-11-27T09:32:10Z,42.805,6.029,13.2964,4.59973,2472.069,2017-11-27T11:33:38Z
2017-11-27T09:35:13Z,42.805,6.029,13.2963,4.60001,2472.047,2017-11-27T11:36:41Z
2017-11-27T09:38:16Z,42.805,6.029,13.2973,4.59985,2472.055,2017-11-27T11:39:44Z
2017-11-27T09:41:19Z,42.805,6.029,13.2985,4.60030,2472.032,2017-11-27T11:42:47Z
2017-11-27T09:44:22Z,42.805,6.029,13.2988,4.60018,2472.047,2017-11-27T11:45:50Z
2017-11-27T09:47:25Z,42.805,6.029,13.2973,4.59997,2472.047,2017-11-27T11:48:53Z
2017-11-27T09:50:27Z,42.805,6.029,13.2992,4.59985,2472.069,2017-11-27T11:51:56Z
2017-11-27T09:53:30Z,42.805,6.029,13.2979,4.59998,2472.047,2017-11-27T11:54:59Z
2017-11-27T09:56:33Z,42.805,6.029,13.2983,4.59993,2472.024,2017-11-27T11:58:02Z
2017-11-27T09:59:36Z,42.805,6.029,13.2979,4.59989,2472.069,2017-11-27T12:01:05Z
2017-11-27T10:02:39Z,42.805,6.029,13.3036,4.59983,2472.047,2017-11-27T12:04:07Z
2017-11-27T10:05:42Z,42.805,6.029,13.3021,4.59995,2472.069,2017-11-27T12:07:10Z
2017-11-27T10:08:45Z,42.805,6.029,13.2990,4.60021,2472.047,2017-11-27T12:10:13Z
2017-11-27T10:11:48Z,42.805,6.029,13.2998,4.59999,2472.069,2017-11-27T12:13:16Z
2017-11-27T10:14:51Z,42.805,6.029,13.2996,4.60014,2472.069,2017-11-27T12:16:19Z
2017-11-27T10:17:53Z,42.805,6.029,13.2998,4.60009,2472.069,2017-11-27T12:19:22Z
2017-11-27T10:20:56Z,42.805,6.029,13.2985,4.60019,2472.055,2017-11-27T12:22:25Z
2017-11-27T10:23:59Z,42.805,6.029,13.2984,4.59994,2472.047,2017-11-27T12:25:28Z
2017-11-27T10:27:02Z,42.805,6.029,13.2975,4.59990,2472.092,2017-11-27T12:28:31Z
2017-11-27T10:30:05Z,42.805,6.029,13.2982,4.59983,2472.069,2017-11-27T12:31:33Z
2017-11-27T10:33:08Z,42.805,6.029,13.2968,4.59978,2472.077,2017-11-27T12:34:36Z
2017-11-27T10:36:11Z,42.805,6.029,13.2984,4.59987,2472.115,2017-11-27T12:37:39Z
2017-11-27T10:39:14Z,42.805,6.029,13.2986,4.60002,2472.069,2017-11-27T12:40:42Z
2017-11-27T10:42:17Z,42.805,6.029,13.2975,4.59993,2472.137,2017-11-27T12:43:45Z
2017-11-27T10:45:20Z,42.805,6.029,13.2957,4.60011,2472.1,2017-11-27T12:46:48Z
2017-11-27T10:48:22Z,42.805,6.029,13.2996,4.59999,2472.092,2017-11-27T12:49:51Z
2017-11-27T10:51:25Z,42.805,6.029,13.2994,4.59984,2472.129,2017-11-27T12:52:54Z
2017-11-27T10:54:28Z,42.805,6.029,13.2979,4.59995,2472.069,2017-11-27T12:55:57Z
2017-11-27T10:57:31Z,42.805,6.029,13.2974,4.60008,2472.115,2017-11-27T12:59:00Z
2017-11-27T11:00:34Z,42.805,6.029,13.2984,4.59999,2472.115,2017-11-27T13:02:02Z
2017-11-27T11:03:37Z,42.805,6.029,13.3011,4.60021,2472.115,2017-11-27T13:05:05Z
2017-11-27T11:06:40Z,42.805,6.029,13.3009,4.59994,2472.115,2017-11-27T13:08:08Z
2017-11-27T11:09:43Z,42.805,6.029,13.2999,4.60054,2472.1,2017-11-27T13:11:11Z
2017-11-27T11:12:46Z,42.805,6.029,13.2965,4.59995,2472.092,2017-11-27T13:14:14Z
2017-11-27T11:15:49Z,42.805,6.029,13.2973,4.59984,2472.092,2017-11-27T13:17:17Z
2017-11-27T11:18:51Z,42.805,6.029,13.2993,4.59995,2472.115,2017-11-27T13:20:20Z
2017-11-27T11:21:54Z,42.805,6.029,13.2979,4.59995,2472.115,2017-11-27T13:23:23Z
2017-11-27T11:24:57Z,42.805,6.029,13.3002,4.60034,2472.1,2017-11-27T13:26:26Z
2017-11-27T11:28:00Z,42.805,6.029,13.2998,4.60024,2472.092,2017-11-27T13:29:28Z
2017-11-27T11:31:03Z,42.805,6.029,13.3018,4.60015,2472.115,2017-11-27T13:32:31Z
2017-11-27T11:34:06Z,42.805,6.029,13.3018,4.59982,2472.137,2017-11-27T13:35:34Z
2017-11-27T11:37:09Z,42.805,6.029,13.3029,4.59990,2472.115,2017-11-27T13:38:37Z
2017-11-27T11:40:12Z,42.805,6.029,13.3018,4.60003,2472.115,2017-11-27T13:41:40Z
2017-11-27T11:43:15Z,42.805,6.029,13.2998,4.60023,2472.115,2017-11-27T13:44:43Z
2017-11-27T11:46:18Z,42.805,6.029,13.3000,4.60027,2472.137,2017-11-27T13:47:46Z
2017-11-27T11:49:20Z,42.805,6.029,13.3011,4.60016,2472.137,2017-11-27T13:50:49Z
2017-11-27T11:52:23Z,42.805,6.029,13.3002,4.59998,2472.1,2017-11-27T13:53:52Z
2017-11-27T11:55:26Z,42.805,6.029,13.2985,4.59992,2472.1,2017-11-27T13:56:55Z
2017-11-27T11:58:29Z,42.805,6.029,13.2973,4.59991,2472.137,2017-11-27T13:59:57Z
2017-11-27T12:01:32Z,42.805,6.029,13.2964,4.60002,2472.16,2017-11-27T14:03:00Z
2017-11-27T12:04:35Z,42.805,6.029,13.2985,4.59998,2472.137,2017-11-27T14:06:03Z
2017-11-27T12:07:38Z,42.805,6.029,13.3001,4.60044,2472.137,2017-11-27T14:09:06Z
2017-11-27T12:10:41Z,42.805,6.029,13.2986,4.60060,2472.137,2017-11-27T14:12:09Z
2017-11-27T12:13:44Z,42.805,6.029,13.2979,4.60029,2472.092,2017-11-27T14:15:12Z
2017-11-27T12:16:46Z,42.805,6.029,13.2991,4.60009,2472.137,2017-11-27T14:18:15Z
2017-11-27T12:19:49Z,42.805,6.029,13.2988,4.60024,2472.115,2017-11-27T14:21:18Z
2017-11-27T12:22:52Z,42.805,6.029,13.3004,4.60052,2472.1,2017-11-27T14:24:21Z
2017-11-27T12:25:55Z,42.805,6.029,13.3014,4.60033,2472.137,2017-11-27T14:27:24Z
2017-11-27T12:28:58Z,42.805,6.029,13.3023,4.59984,2472.137,2017-11-27T14:30:26Z
2017-11-27T12:32:01Z,42.805,6.029,13.3010,4.59995,2472.137,2017-11-27T14:33:29Z
2017-11-27T12:35:04Z,42.805,6.029,13.3029,4.60001,2472.16,2017-11-27T14:36:32Z
2017-11-27T12:38:07Z,42.805,6.029,13.3007,4.59993,2472.16,2017-11-27T14:39:35Z
2017-11-27T12:41:10Z,42.805,6.029,13.2994,4.60023,2472.137,2017-11-27T14:42:38Z
2017-11-27T12:44:13Z,42.805,6.029,13.2997,4.59980,2472.137,2017-11-27T14:45:41Z
2017-11-27T12:47:15Z,42.805,6.029,13.2981,4.59999,2472.137,2017-11-27T14:48:44Z
2017-11-27T12:50:18Z,42.805,6.029,13.2994,4.59985,2472.137,2017-11-27T14:51:47Z
2017-11-27T12:53:21Z,42.805,6.029,13.2991,4.59995,2472.16,2017-11-27T14:54:50Z
2017-11-27T12:56:24Z,42.805,6.029,13.2992,4.59997,2472.16,2017-11-27T14:57:53Z
2017-11-27T12:59:27Z,42.805,6.029,13.2967,4.59990,2472.123,2017-11-27T15:00:55Z
2017-11-27T13:02:30Z,42.805,6.029,13.3009,4.59984,2472.115,2017-11-27T15:03:58Z
2017-11-27T13:05:33Z,42.805,6.029,13.2946,4.60018,2472.115,2017-11-27T15:07:01Z
2017-11-27T13:08:36Z,42.805,6.029,13.2935,4.60003,2472.182,2017-11-27T15:10:04Z
2017-11-27T13:11:39Z,42.805,6.029,13.2937,4.59992,2472.137,2017-11-27T15:13:07Z
2017-11-27T13:14:42Z,42.805,6.029,13.2940,4.59982,2472.137,2017-11-27T15:16:10Z
2017-11-27T13:17:44Z,42.805,6.029,13.2938,4.59975,2472.16,2017-11-27T15:19:13Z
2017-11-27T13:20:47Z,42.805,6.029,13.2939,4.59972,2472.123,2017-11-27T15:22:16Z
2017-11-27T13:23:50Z,42.805,6.029,13.2941,4.59973,2472.175,2017-11-27T15:25:19Z
2017-11-27T13:26:53Z,42.805,6.029,13.2940,4.59975,2472.123,2017-11-27T15:28:21Z
2017-11-27T13:29:56Z,42.805,6.029,13.2939,4.59975,2472.145,2017-11-27T15:31:24Z
2017-11-27T13:32:59Z,42.805,6.029,13.2935,4.59981,2472.137,2017-11-27T15:34:27Z
2017-11-27T13:36:02Z,42.805,6.029,13.2941,4.59981,2472.182,2017-11-27T15:37:30Z
2017-11-27T13:39:05Z,42.805,6.029,13.2935,4.59981,2472.123,2017-11-27T15:40:33Z
2017-11-27T13:42:08Z,42.805,6.029,13.2937,4.59983,2472.137,2017-11-27T15:43:36Z
2017-11-27T13:45:11Z,42.805,6.029,13.2939,4.59987,2472.123,2017-11-27T15:46:39Z
2017-11-27T13:48:13Z,42.805,6.029,13.2938,4.59981,2472.137,2017-11-27T15:49:42Z
2017-11-27T13:51:16Z,42.805,6.029,13.2935,4.59978,2472.137,2017-11-27T15:52:45Z
2017-11-27T13:54:19Z,42.805,6.029,13.2944,4.59967,2472.137,2017-11-27T15:55:48Z
2017-11-27T13:57:22Z,42.805,6.029,13.2939,4.59972,2472.145,2017-11-27T15:58:50Z
2017-11-27T14:00:25Z,42.805,6.029,13.2940,4.59979,2472.137,2017-11-27T16:01:53Z
2017-11-27T14:03:28Z,42.805,6.029,13.2943,4.59973,2472.16,2017-11-27T16:04:56Z
2017-11-27T14:06:31Z,42.805,6.029,13.2938,4.59989,2472.115,2017-11-27T16:07:59Z
2017-11-27T14:09:34Z,42.805,6.029,13.2961,4.59975,2472.115,2017-11-27T16:11:02Z
2017-11-27T14:12:37Z,42.805,6.029,13.2939,4.59978,2472.16,2017-11-27T16:14:05Z
2017-11-27T14:15:39Z,42.805,6.029,13.2938,4.59971,2472.145,2017-11-27T16:17:08Z
2017-11-27T14:18:42Z,42.805,6.029,13.2945,4.59970,2472.123,2017-11-27T16:20:11Z
2017-11-27T14:21:45Z,42.805,6.029,13.2940,4.59967,2472.16,2017-11-27T16:23:14Z
2017-11-27T14:24:48Z,42.805,6.029,13.2939,4.59964,2472.16,2017-11-27T16:26:17Z
2017-11-27T14:27:51Z,42.805,6.029,13.2945,4.59967,2472.123,2017-11-27T16:29:19Z
2017-11-27T14:30:54Z,42.805,6.029,13.2942,4.59968,2472.168,2017-11-27T16:32:22Z
2017-11-27T14:33:57Z,42.805,6.029,13.2943,4.59968,2472.137,2017-11-27T16:35:25Z
2017-11-27T14:37:00Z,42.805,6.029,13.2942,4.59963,2472.16,2017-11-27T16:38:28Z
2017-11-27T14:40:03Z,42.805,6.029,13.2940,4.59965,2472.137,2017-11-27T16:41:31Z
2017-11-27T14:43:06Z,42.805,6.029,13.2937,4.59964,2472.16,2017-11-27T16:44:34Z
2017-11-27T14:46:08Z,42.805,6.029,13.2939,4.59964,2472.123,2017-11-27T16:47:37Z
2017-11-27T14:49:11Z,42.805,6.029,13.2957,4.59979,2472.168,2017-11-27T16:50:40Z
2017-11-27T14:52:14Z,42.805,6.029,13.2986,4.59985,2472.16,2017-11-27T16:53:43Z
2017-11-27T14:55:17Z,42.805,6.029,13.2972,4.60010,2472.123,2017-11-27T16:56:46Z
2017-11-27T14:58:20Z,42.805,6.029,13.2986,4.60013,2472.123,2017-11-27T16:59:48Z